Location: Dappach
(48.9767°N, 9.6998°E)
Time: 03:00:29
(UTC+00:00)

MSX - Pass Details

Date: 23 May 2024
Orbit: 893 x 906 km, 99.0° (Epoch: 19 June)

Event Time Altitude Azimuth Distance (km) Brightness Sun altitude
Rises 02:02:49 0° 11° (N) 3,526 8.1 -11.3°
Reaches altitude 10° 02:05:17 10° 6° (N) 2,580 7.2 -11.0°
Maximum altitude 02:10:48 50° 293° (WNW) 1,132 4.3 -10.5°
Enters shadow 02:15:47 13° 221° (SW) 2,378 5.3 -9.9°
